Location: Cazarilh
(42.9578°N, 0.5819°E)
Time: 05:55:21
(UTC+00:00)

SKYMED 2 - Pass Details

Date: 11 December 2019
Orbit: 621 x 623 km, 97.9° (Epoch: 19 January)

Event Time Altitude Azimuth Distance (km) Brightness Sun altitude
Rises 05:10:29 0° 167° (SSE) 2,890 7.3 -22.6°
Reaches altitude 10° 05:12:40 10° 168° (SSE) 1,988 6.4 -22.2°
Maximum altitude 05:17:00 84° 258° (WSW) 633 3.4 -21.4°
Enters shadow 05:18:51 34° 343° (NNW) 1,027 4.4 -21.1°
